This is the latest recevied weather packets stored in our database for station/object NR0A-4. If no packets are shown the sender has not sent any weather packets the latest 10 day(s).
| Time | Temp. | Humidity | Pressure | Rain* | Wind** | Luminosity | Snow |
|---|---|---|---|---|---|---|---|
| 1777833004 | 22.22° C | 34% | 1011.5 hPa | 0 mm | - | 861 W/m² | - |
| 1777832704 | 22.22° C | 34% | 1011.6 hPa | 0 mm | - | 877 W/m² | - |
| 1777832404 | 21.67° C | 34% | 1011.6 hPa | 0 mm | - | 891 W/m² | - |
| 1777832105 | 22.22° C | 34% | 1011.7 hPa | 0 mm | - | 865 W/m² | - |
| 1777831804 | 21.67° C | 34% | 1011.7 hPa | 0 mm | - | 828 W/m² | - |
| 1777831504 | 21.67° C | 35% | 1011.8 hPa | 0 mm | - | 812 W/m² | - |
| 1777831204 | 21.67° C | 36% | 1011.9 hPa | 0 mm | - | 770 W/m² | - |
| 1777830904 | 21.67° C | 37% | 1012 hPa | 0 mm | - | 791 W/m² | - |
| 1777830604 | 21.67° C | 37% | 1012.1 hPa | 0 mm | - | 738 W/m² | - |
| 1777830304 | 21.11° C | 38% | 1012.2 hPa | 0 mm | - | 738 W/m² | - |
| 1777830005 | 21.11° C | 36% | 1012.3 hPa | 0 mm | - | 833 W/m² | - |
| 1777829704 | 21.11° C | 37% | 1012.3 hPa | 0 mm | - | 703 W/m² | - |
| 1777829405 | 20.56° C | 39% | 1012.4 hPa | 0 mm | - | 837 W/m² | - |
| 1777829104 | 20.56° C | 38% | 1012.5 hPa | 0 mm | - | 861 W/m² | - |
| 1777828804 | 20.56° C | 36% | 1012.5 hPa | 0 mm | - | 824 W/m² | - |
| 1777828504 | 20.56° C | 38% | 1012.4 hPa | 0 mm | - | 921 W/m² | - |
| 1777828204 | 20.56° C | 40% | 1012.5 hPa | 0 mm | - | 856 W/m² | - |
| 1777827904 | 20.56° C | 39% | 1012.5 hPa | 0 mm | - | 823 W/m² | - |
| 1777827604 | 20.56° C | 38% | 1012.6 hPa | 0 mm | - | 786 W/m² | - |
| 1777827304 | 20.56° C | 43% | 1012.6 hPa | 0 mm | - | 821 W/m² | - |
| 1777827004 | 20.56° C | 40% | 1012.6 hPa | 0 mm | - | 754 W/m² | - |
| 1777826705 | 20° C | 43% | 1012.5 hPa | 0 mm | - | 784 W/m² | - |
| 1777826405 | 20° C | 41% | 1012.6 hPa | 0 mm | - | 768 W/m² | - |
| 1777826105 | 19.44° C | 46% | 1012.6 hPa | 0 mm | - | 786 W/m² | - |
| 1777825804 | 19.44° C | 38% | 1012.7 hPa | 0 mm | - | 740 W/m² | - |
* Rain latest hour (hover to see other rain measurements)
** Current wind speed in m/s (hover to see current wind gust speed)